Regional Weather Roundup
Issued by NWS

Home | Current Version | Previous Version | Graphics & Text | Print | Product List | Glossary On
Versions: 1 2 3 4 5 6 7 8 9 10 11 12 13 14 15 16 17 18 19 20 21 22 23 24 25 26
000
ASUS45 KSLC 230310
RWRUT

UTAH REGIONAL WEATHER ROUNDUP
NATIONAL WEATHER SERVICE SALT LAKE CITY UT
900 PM MDT THU JUN 22 2017

UTZ001>011-023>025-230400-

NORTHERN UTAH

CITY           SKY/WX    TMP DP  RH WIND       PRES   REMARKS
BRIGHAM CITY   CLEAR     76  25  14 N13       30.02S
HILL AFB       CLEAR     75  36  24 CALM      30.05R
LOGAN          CLEAR     70  36  28 N10       30.05R
OGDEN          CLEAR     75  37  25 W5        30.02R
SALT LAKE CITY CLEAR     80  37  21 N7        30.01R
TOOELE VALLEY  CLEAR     73  41  31 CALM      30.02S
WENDOVER         N/A     82  23  11 N14       30.03R
HEBER CITY     CLEAR     68  28  22 SE3       30.07R
WEST JORDAN    CLEAR     75  43  31 NW6       30.05S

$$

UTZ011>015-024>027-230400-

CENTRAL/NORTHEAST UTAH

CITY           SKY/WX    TMP DP  RH WIND       PRES   REMARKS
PROVO AIRPORT  CLEAR     77  39  25 N12       30.03R
MOAB/CANYONLAN CLEAR     90  30  11 NW13      29.85R
DELTA          CLEAR     81  23  12 N10       30.01R
PRICE          CLEAR     78  28  16 NW13G18   30.05R
ROOSEVELT      CLEAR     77  30  18 W18G25    29.98R
VERNAL         CLEAR     81  27  14 VRB3      29.95R

$$

UTZ013>016-019>022-027-230400-

SOUTHERN UTAH

CITY           SKY/WX    TMP DP  RH WIND       PRES   REMARKS
BRYCE CANYON   PTCLDY    72  31  22 NW7       30.21
CEDAR CITY     CLEAR     80  36  20 N7        30.02R
MILFORD        CLEAR     85  29  13 NE9       29.99R
ST GEORGE      CLEAR    102  23   6 W6        29.74R HX  95
HANKSVILLE     CLEAR     90  30  12 NW16      29.91R
BLANDING       PTCLDY    74  37  25 N10       30.04R

$$

REGIONAL REPORTS     COLORADO/ARIZONA

CITY           SKY/WX    TMP DP  RH WIND       PRES   REMARKS
CRAIG, CO      CLEAR     74  24  15 NW7       30.04R
GRAND JUNCTION CLOUDY    86  33  15 CALM      29.86R
RIFLE, CO      CLEAR     79  38  22 E7        29.95R
MONTROSE, CO   CLOUDY    80  40  23 S6        29.97R
CORTEZ, CO     CLOUDY    82  26  13 N3        29.97R
COLORADO CITY    N/A     90  27  10 W6        29.97S
PAGE, AZ       CLOUDY    95  27   9 NW7       29.86R HAZE
GRAND CANYON   CLEAR     83  16   8 NW5       30.13R
KINGMAN, AZ    CLEAR     96  37  12 S12       29.86R HX  91
FLAGSTAFF, AZ  CLEAR     80  25  13 W7        30.17R

$$

REGIONAL REPORTS    NEVADA/IDAHO/WYOMING

CITY           SKY/WX    TMP DP  RH WIND       PRES   REMARKS
LAS VEGAS, NV  PTCLDY   107  15   4 W15G23    29.69R HX  98
ELY, NY        CLEAR     79  26  14 NW9       30.14R
ELKO, NV       CLEAR     78  26  14 N12       30.10R
POCATELLO, ID  CLEAR     66  37  34 S12       30.07R
BURLEY, ID     CLEAR     68  28  22 W15G24    30.04S
FORT BRIDGER,    N/A     67  35  30 NW9       30.21R
EVANSTON, WY   CLEAR     64  39  39 W6        30.21R
ROCK SPRINGS,  CLEAR     67  26  21 N8G21     30.13R
KEMMERER, WY     N/A     61  34  36 NW9       30.21R

$$




USA.gov is the U.S. government's official web portal to all federal, state and local government web resources and services.